Location: Albuquerque Trailhead
(34.7934°N, 106.3736°W)
Time: 10:03:47
(UTC+00:00)

Exosat Rocket - Pass Details

Date: 24 October 2021
Orbit: 759 x 2516 km, 72.3° (Epoch: 08 December)

Event Time Altitude Azimuth Distance (km) Brightness Sun altitude
Rises 09:29:37 0° 138° (SE) 4,318 7.6 -47.2°
Reaches altitude 10° 09:33:34 10° 118° (ESE) 3,658 7.3 -46.4°
Maximum altitude 09:38:43 16° 83° (E) 3,548 7.3 -45.4°
Drops below altitude 10° 09:44:45 10° 50° (NE) 4,453 7.9 -44.3°
Sets 09:50:20 0° 33° (NNE) 5,767 8.5 -43.2°
